Flag for Canada Weather past 2 weeks in Sault Ste. Marie, Ontario, Canada

Now
64 °F

Sprinkles. Mostly cloudy.


Feels Like: 64 °F
Forecast: 63 / 72 °F
Wind: 2 mph from North

Location: Sault Ste Marie

Current Time: Aug 29, 2015 at 11:34:07 AM

Latest Report: Aug 29, 2015 at 11:00 AM


Visibility: 15 mi

Pressure: 30.08 "Hg

Humidity: 83%

Dew point: 59 °F

Location of Sault Ste. MarieLocation

Historic Weather in Sault Ste. Marie — Graph

°F

Sault Ste. Marie temperature yesterday

Maximum temperature yesterday: 73 °F (at 1:00 PM)
Minimum temperature yesterday: 50 °F (at 2:00 AM)
Average temperature yesterday: 62 °F

Past Weeks' High & Low Weather Summary

 TemperatureHumidityPressure
High88 °F (Aug 15, 4:00 PM)100% (Aug 15, 7:00 AM)30.21 "Hg (Aug 15, 7:00 AM)
Low50 °F (Aug 28, 2:00 AM)41% (Aug 21, 5:00 PM)29.55 "Hg (Aug 19, 7:00 PM)
Average65 °F81%29.93 "Hg
* Reported Aug 14 10:00 AM — Aug 29 10:00 AM, Sault Ste. Marie, Weather by CustomWeather, © 2015

Note: Actual official high and low records may vary slightly from our data, if they occured in-between our weather recording intervals... More about our weather records

Advertising

Sault Ste. Marie weather history for previous 24 hours

 ConditionsComfort  
Time TempWeatherWind HumidityBarometerVisibility
10:00 AM
Sat, Aug 29
63 °FSprinkles. Cloudy.6 mph83%30.06 "Hg15 mi
9:52 AM63 °FSprinkles. Cloudy.6 mph83%30.06 "Hg15 mi
9:00 AM63 °FCloudy.8 mph83%30.07 "Hg15 mi
8:00 AM64 °FMostly cloudy.3 mph88%30.06 "Hg15 mi
7:00 AM64 °FMostly cloudy.5 mph88%30.04 "Hg15 mi
6:00 AM64 °FOvercast.7 mph88%30.04 "Hg15 mi
5:00 AM64 °FMostly cloudy.8 mph88%30.04 "Hg15 mi
4:00 AM64 °FMostly cloudy.9 mph94%30.03 "Hg15 mi
3:00 AM64 °FLight rain. Mostly cloudy.3 mph94%30.03 "Hg15 mi
2:00 AM64 °FMostly cloudy.3 mph88%30.04 "Hg15 mi
1:00 AM64 °FOvercast.5 mph88%30.04 "Hg15 mi
12:00 AM64 °FMostly cloudy.3 mph83%30.03 "Hg15 mi
11:00 PM
Fri, Aug 28
64 °FMostly cloudy.6 mph83%30.03 "Hg15 mi
10:00 PM64 °FMostly cloudy.5 mph83%30.06 "Hg15 mi
9:00 PM66 °FMostly cloudy.3 mph73%30.06 "Hg15 mi
8:00 PM68 °FBroken clouds.7 mph69%30.04 "Hg15 mi
7:00 PM70 °FCloudy.8 mph64%30.05 "Hg15 mi
6:00 PM70 °FMostly cloudy.6 mph69%30.04 "Hg15 mi
5:00 PM72 °FBroken clouds.10 mph65%30.05 "Hg15 mi
3:00 PM72 °FBroken clouds.10 mph69%30.07 "Hg15 mi
2:00 PM72 °FPartly sunny.8 mph69%30.07 "Hg15 mi
1:00 PM73 °FPartly sunny.9 mph65%30.08 "Hg15 mi
12:00 PM70 °FBroken clouds.9 mph73%30.10 "Hg15 mi
11:00 AM68 °FPartly sunny.14 mph78%30.10 "Hg15 mi
Weather by CustomWeather, © 2015

See weather overviewHow to use our weather pages